• In Hungary
  • List of Countries
  • For 7 days
  • Water Temperature
  • Satellite Maps
  • Weather Map
  • News
  • Weather Widgets
  • user-avatar
    Login

    Hourly Weather Sumgayit

    Today, 26 September, Tuesday

    Time Temperature Precipitation Wind Pressure Humidity
    00:00 +19°C° 0 mm 9 mps 744 mmHg 65%
    01:00 +20°C° 0 mm 8 mps 744 mmHg 67%
    02:00 +20°C° 0 mm 8 mps 744 mmHg 68%
    03:00 +19°C° 0 mm 6 mps 744 mmHg 69%
    04:00 +19°C° 0 mm 6 mps 743 mmHg 70%
    05:00 +19°C° 0 mm 6 mps 743 mmHg 70%
    06:00 +19°C° 0 mm 6 mps 743 mmHg 71%
    07:00 +19°C° 0 mm 6 mps 743 mmHg 67%
    08:00 +20°C° 0 mm 6 mps 743 mmHg 63%
    09:00 +21°C° 0 mm 6 mps 744 mmHg 59%
    10:00 +21°C° 0 mm 6 mps 744 mmHg 58%
    11:00 +22°C° 0 mm 6 mps 744 mmHg 57%
    12:00 +22°C° 0 mm 6 mps 744 mmHg 55%
    13:00 +22°C° 0 mm 6 mps 744 mmHg 56%
    14:00 +22°C° 0 mm 7 mps 744 mmHg 56%
    15:00 +21°C° 0 mm 8 mps 744 mmHg 56%
    16:00 +21°C° 0 mm 8 mps 744 mmHg 57%
    17:00 +20°C° 0 mm 8 mps 744 mmHg 59%
    18:00 +20°C° 0 mm 8 mps 744 mmHg 60%
    19:00 +18°C° 0 mm 7 mps 744 mmHg 61%
    20:00 +18°C° 0 mm 7 mps 744 mmHg 62%
    21:00 +18°C° 0 mm 7 mps 744 mmHg 63%
    22:00 +17°C° 0 mm 7 mps 744 mmHg 63%
    23:00 +17°C° 0 mm 7 mps 744 mmHg 63%

    Tomorrow, 27 September, Wednesday

    Time Temperature Precipitation Wind Pressure Humidity
    00:00 +17°C° 0 mm 6 mps 744 mmHg 63%
    01:00 +17°C° 0 mm 6 mps 744 mmHg 63%
    02:00 +17°C° 0 mm 6 mps 743 mmHg 63%
    03:00 +17°C° 0 mm 6 mps 743 mmHg 63%
    04:00 +17°C° 0.1 mm 5 mps 743 mmHg 64%
    05:00 +17°C° 0.1 mm 5 mps 743 mmHg 65%
    06:00 +17°C° 0.1 mm 5 mps 743 mmHg 65%
    07:00 +17°C° 0.2 mm 5 mps 743 mmHg 66%
    08:00 +17°C° 0.2 mm 5 mps 743 mmHg 67%
    09:00 +16°C° 0.2 mm 6 mps 744 mmHg 68%
    10:00 +17°C° 0.2 mm 6 mps 744 mmHg 67%
    11:00 +17°C° 0.2 mm 6 mps 744 mmHg 66%
    12:00 +17°C° 0.2 mm 6 mps 744 mmHg 65%
    13:00 +17°C° 0.2 mm 6 mps 743 mmHg 64%
    14:00 +17°C° 0.2 mm 7 mps 743 mmHg 63%
    15:00 +17°C° 0.2 mm 7 mps 743 mmHg 62%
    16:00 +17°C° 0 mm 7 mps 743 mmHg 64%
    17:00 +17°C° 0 mm 8 mps 743 mmHg 65%
    18:00 +17°C° 0 mm 8 mps 744 mmHg 66%
    19:00 +17°C° 0.3 mm 9 mps 744 mmHg 67%
    20:00 +16°C° 0.3 mm 9 mps 744 mmHg 69%
    21:00 +16°C° 0.3 mm 9 mps 744 mmHg 70%
    22:00 +16°C° 0.8 mm 9 mps 744 mmHg 70%
    23:00 +15°C° 0.8 mm 9 mps 744 mmHg 70%

    Day after tomorrow, 28 September, Thursday

    Time Temperature Precipitation Wind Pressure Humidity
    00:00 +14°C° 0.8 mm 10 mps 744 mmHg 70%
    01:00 +14°C° 0.6 mm 10 mps 744 mmHg 71%
    02:00 +14°C° 0.6 mm 10 mps 744 mmHg 72%
    03:00 +14°C° 0.6 mm 10 mps 744 mmHg 74%
    04:00 +14°C° 0.6 mm 10 mps 744 mmHg 74%
    05:00 +14°C° 0.6 mm 10 mps 744 mmHg 74%
    06:00 +14°C° 0.6 mm 10 mps 744 mmHg 74%
    07:00 +14°C° 0.7 mm 10 mps 744 mmHg 73%
    08:00 +13°C° 0.7 mm 10 mps 745 mmHg 73%
    09:00 +13°C° 0.7 mm 11 mps 745 mmHg 72%
    10:00 +13°C° 1 mm 10 mps 745 mmHg 72%
    11:00 +13°C° 1 mm 10 mps 745 mmHg 71%
    12:00 +13°C° 1 mm 10 mps 746 mmHg 71%
    13:00 +13°C° 0.6 mm 10 mps 746 mmHg 70%
    14:00 +13°C° 0.6 mm 10 mps 746 mmHg 70%
    15:00 +13°C° 0.6 mm 9 mps 746 mmHg 69%
    16:00 +13°C° 0.5 mm 9 mps 746 mmHg 70%
    17:00 +13°C° 0.5 mm 9 mps 746 mmHg 70%
    18:00 +13°C° 0.5 mm 8 mps 747 mmHg 70%
    19:00 +13°C° 0.6 mm 8 mps 747 mmHg 71%
    20:00 +13°C° 0.6 mm 8 mps 748 mmHg 72%
    21:00 +13°C° 0.6 mm 8 mps 748 mmHg 72%
    22:00 +13°C° 0.1 mm 8 mps 748 mmHg 72%
    23:00 +14°C° 0.1 mm 7 mps 748 mmHg 71%

    29 September, Friday

    Time Temperature Precipitation Wind Pressure Humidity
    00:00 +14°C° 0.1 mm 7 mps 748 mmHg 71%
    01:00 +14°C° 0.1 mm 7 mps 748 mmHg 70%
    02:00 +14°C° 0.1 mm 7 mps 748 mmHg 69%
    03:00 +14°C° 0.1 mm 6 mps 748 mmHg 69%
    04:00 +14°C° 0 mm 6 mps 748 mmHg 68%
    05:00 +14°C° 0 mm 5 mps 748 mmHg 68%
    06:00 +14°C° 0 mm 5 mps 748 mmHg 67%
    07:00 +15°C° 0 mm 5 mps 748 mmHg 65%
    08:00 +15°C° 0 mm 5 mps 749 mmHg 63%
    09:00 +15°C° 0 mm 4 mps 749 mmHg 61%
    10:00 +17°C° 0 mm 4 mps 749 mmHg 59%
    11:00 +17°C° 0 mm 4 mps 748 mmHg 57%
    12:00 +17°C° 0 mm 3 mps 748 mmHg 55%
    13:00 +17°C° 0 mm 4 mps 748 mmHg 54%
    14:00 +17°C° 0 mm 4 mps 748 mmHg 53%
    15:00 +18°C° 0 mm 4 mps 747 mmHg 53%
    16:00 +17°C° 0 mm 4 mps 747 mmHg 53%
    17:00 +17°C° 0 mm 4 mps 747 mmHg 54%
    18:00 +17°C° 0 mm 4 mps 747 mmHg 54%
    19:00 +17°C° 0 mm 4 mps 747 mmHg 54%
    20:00 +17°C° 0 mm 3 mps 747 mmHg 54%
    21:00 +17°C° 0 mm 3 mps 747 mmHg 53%
    22:00 +18°C° 0 mm 3 mps 746 mmHg 53%
    23:00 +18°C° 0 mm 3 mps 746 mmHg 54%

    30 September, Saturday

    Time Temperature Precipitation Wind Pressure Humidity
    00:00 +18°C° 0 mm 3 mps 745 mmHg 54%
    01:00 +18°C° 0 mm 3 mps 745 mmHg 54%
    02:00 +18°C° 0 mm 3 mps 744 mmHg 55%
    03:00 +18°C° 0 mm 3 mps 744 mmHg 56%
    04:00 +18°C° 0 mm 3 mps 743 mmHg 58%
    05:00 +18°C° 0 mm 3 mps 743 mmHg 59%
    06:00 +18°C° 0 mm 4 mps 743 mmHg 61%
    07:00 +18°C° 0.1 mm 4 mps 743 mmHg 63%
    08:00 +18°C° 0.1 mm 4 mps 743 mmHg 64%
    09:00 +18°C° 0.1 mm 4 mps 743 mmHg 66%
    10:00 +19°C° 0.1 mm 4 mps 742 mmHg 67%
    11:00 +19°C° 0.1 mm 4 mps 742 mmHg 67%
    12:00 +20°C° 0.1 mm 5 mps 741 mmHg 67%
    13:00 +20°C° 0 mm 5 mps 741 mmHg 66%
    14:00 +21°C° 0 mm 5 mps 740 mmHg 65%
    15:00 +21°C° 0 mm 6 mps 740 mmHg 64%
    16:00 +21°C° 0 mm 6 mps 740 mmHg 65%
    17:00 +21°C° 0 mm 5 mps 740 mmHg 67%
    18:00 +21°C° 0 mm 5 mps 740 mmHg 69%
    19:00 +21°C° 0 mm 5 mps 740 mmHg 70%
    20:00 +20°C° 0 mm 4 mps 740 mmHg 71%
    21:00 +20°C° 0 mm 4 mps 740 mmHg 72%
    22:00 +20°C° 0 mm 3 mps 739 mmHg 72%
    23:00 +20°C° 0 mm 3 mps 739 mmHg 72%

    1 October, Sunday

    Time Temperature Precipitation Wind Pressure Humidity
    00:00 +20°C° 0 mm 3 mps 739 mmHg 73%
    01:00 +20°C° 0 mm 3 mps 738 mmHg 72%
    02:00 +20°C° 0 mm 3 mps 738 mmHg 72%
    03:00 +19°C° 0 mm 2 mps 738 mmHg 72%
    04:00 +19°C° 0.1 mm 2 mps 738 mmHg 70%
    05:00 +19°C° 0.1 mm 3 mps 738 mmHg 67%
    06:00 +19°C° 0.1 mm 3 mps 739 mmHg 65%
    07:00 +20°C° 0 mm 3 mps 739 mmHg 61%
    08:00 +20°C° 0 mm 4 mps 739 mmHg 57%
    09:00 +21°C° 0 mm 4 mps 739 mmHg 52%
    10:00 +22°C° 0 mm 4 mps 739 mmHg 51%
    11:00 +22°C° 0 mm 5 mps 739 mmHg 49%
    12:00 +23°C° 0 mm 5 mps 739 mmHg 48%
    13:00 +23°C° 0 mm 6 mps 739 mmHg 49%
    14:00 +23°C° 0 mm 6 mps 739 mmHg 49%
    15:00 +23°C° 0 mm 7 mps 739 mmHg 50%
    16:00 +22°C° 0 mm 8 mps 739 mmHg 55%
    17:00 +21°C° 0 mm 8 mps 740 mmHg 59%
    18:00 +21°C° 0 mm 9 mps 740 mmHg 64%
    19:00 +19°C° 0 mm 9 mps 740 mmHg 65%
    20:00 +20°C° 0 mm 8 mps 741 mmHg 67%
    21:00 +18°C° 0 mm 8 mps 741 mmHg 69%
    22:00 +18°C° 0 mm 7 mps 741 mmHg 69%
    23:00 +18°C° 0 mm 7 mps 741 mmHg 69%
    Show more